Regional Weather Roundup
Issued by NWS

Home | Current Version | Previous Version | Graphics & Text | Print | Product List | Glossary On
Versions: 1 2 3 4 5 6 7 8 9 10 11 12 13 14 15 16 17 18 19 20 21 22 23 24 25 26 27 28 29 30 31 32 33 34 35 36 37 38 39 40 41 42 43 44 45 46 47 48 49 50
000
ASUS43 KLMK 200002
RWRKY
KENTUCKY REGIONAL WEATHER ROUNDUP
NATIONAL WEATHER SERVICE LOUISVILLE KY
700 PM EST SUN FEB 19 2017

NOTE "FAIR" INDICATES FEW OR NO CLOUDS BELOW 12,000 FEET
WITH NO SIGNIFICANT WEATHER AND/OR OBSTRUCTIONS TO VISIBILITY.

KYZ001>023-026-027-061>063-070>075-200100-
WESTERN AND SOUTH CENTRAL KENTUCKY

CITY           SKY/WX    TMP DP  RH WIND       PRES   REMARKS
PADUCAH        CLEAR     57  51  80 NE3       30.08S
HENDERSON      CLEAR     54  46  76 E5        30.11R
OWENSBORO      CLEAR     52  49  89 CALM      30.12S
HOPKINSVILLE   CLEAR     61  56  83 NE6       30.08F
BOWLING GREEN  CLEAR     56  49  77 SE5       30.12S
GLASGOW        NOT AVBL
$$

KYZ024-025-028>034-038-045-046-053-200100-
NORTH CENTRAL KENTUCKY

CITY           SKY/WX    TMP DP  RH WIND       PRES   REMARKS
LOUISVILLE/SDF PTCLDY    53  47  79 W5        30.13S
LOUISVILLE/LOU CLEAR     53  46  77 CALM      30.14S
FORT KNOX      CLEAR     45  45  99 NW3       30.11F
$$

KYZ035>037-039>044-047>052-055>060-089>105-200100-
NORTHEAST KENTUCKY

CITY           SKY/WX    TMP DP  RH WIND       PRES   REMARKS
LEXINGTON      CLEAR     50  45  83 NE8       30.15R
COVINGTON      PTCLDY    50  46  86 S7        30.13R
FRANKFORT      CLEAR     50  45  83 CALM      30.14R
$$

KYZ054-064>069-076>088-106>120-200100-
SOUTHEAST KENTUCKY

CITY           SKY/WX    TMP DP  RH WIND       PRES   REMARKS
JACKSON        CLEAR     58  44  60 CALM      30.15R
LONDON         CLEAR     56  44  64 CALM      30.14R
SOMERSET       CLEAR     57  45  62 CALM      30.14S
MIDDLESBORO    CLEAR     53  46  78 CALM      30.15R
MONTICELLO     CLEAR     49  44  83 W8        30.14S
$$





USA.gov is the U.S. government's official web portal to all federal, state and local government web resources and services.